Location: Unspecified
(0.0000°N, 0.0000°E)
Time: 16:23:17
(UTC+00:00)

STARLINK-35289 - Visible Passes

Search period start: 14 January 2026 00:00
Search period end: 24 January 2026 00:00
Orbit: 548 x 551 km, 97.6° (Epoch: 14 January)

Date Brightness Start Highest point End Pass type
(mag) Time Alt. Az. Time Alt. Az. Time Alt. Az.
14 Jan 5.2 20:14:46 13° S 20:14:46 13° S 20:15:16 10° S visible
15 Jan 5.2 20:10:15 13° S 20:10:15 13° S 20:10:44 10° S visible
16 Jan 5.2 20:05:44 13° S 20:05:44 13° S 20:06:11 10° S visible
17 Jan 5.2 20:01:12 12° SSE 20:01:12 12° SSE 20:01:36 10° SSE visible
18 Jan 5.2 19:56:41 12° SSE 19:56:41 12° SSE 19:56:59 10° SSE visible
19 Jan 5.2 19:52:08 11° SSE 19:52:08 11° SSE 19:52:19 10° SSE visible
20 Jan 5.2 19:47:36 10° SSE 19:47:36 10° SSE 19:47:37 10° SSE visible
